Time,TemperatureF,DewpointF,PressureIn,WindDirection,WindDirectionDegrees,WindSpeedMPH,WindSpeedGustMPH,Humidity,HourlyPrecipIn,Conditions,Clouds,dailyrainin,SoftwareType,DateUTC
2013-07-27 00:02:00,58.8,50.3,30.10,SE,135,0.0,0.0,73,0.00,,,0.00,WUHU216DAVISVP2,2013-07-27 07:02:00,
2013-07-27 00:07:00,58.6,50.7,30.09,SE,135,0.0,0.0,75,0.00,,,0.00,WUHU216DAVISVP2,2013-07-27 07:07:00,
2013-07-27 00:12:00,58.2,50.4,30.10,SE,135,0.0,0.0,75,0.00,,,0.00,WUHU216DAVISVP2,2013-07-27 07:12:00,
2013-07-27 00:17:00,57.9,50.1,30.10,SE,135,0.0,0.0,75,0.00,,,0.00,WUHU216DAVISVP2,2013-07-27 07:17:00,
2013-07-27 00:22:00,57.7,50.6,30.10,SE,135,0.0,0.0,77,0.00,,,0.00,WUHU216DAVISVP2,2013-07-27 07:22:00,
2013-07-27 00:27:00,57.4,50.7,30.10,SE,135,0.0,0.0,78,0.00,,,0.00,WUHU216DAVISVP2,2013-07-27 07:27:00,
2013-07-27 00:32:00,57.1,50.4,30.10,SE,135,0.0,0.0,78,0.00,,,0.00,WUHU216DAVISVP2,2013-07-27 07:32:00,
2013-07-27 00:37:00,56.9,50.8,30.10,SE,135,0.0,1.0,80,0.00,,,0.00,WUHU216DAVISVP2,2013-07-27 07:37:00,
2013-07-27 00:42:00,56.8,51.1,30.10,SE,135,0.0,1.0,81,0.00,,,0.00,WUHU216DAVISVP2,2013-07-27 07:42:00,
2013-07-27 00:47:00,56.7,51.0,30.10,SE,135,0.0,0.0,81,0.00,,,0.00,WUHU216DAVISVP2,2013-07-27 07:47:00,
2013-07-27 00:52:00,56.6,50.9,30.10,SE,135,0.0,0.0,81,0.00,,,0.00,WUHU216DAVISVP2,2013-07-27 07:52:00,
2013-07-27 00:57:00,56.4,51.0,30.10,SE,135,0.0,0.0,82,0.00,,,0.00,WUHU216DAVISVP2,2013-07-27 07:57:00,
2013-07-27 01:02:00,56.1,50.7,30.10,SE,135,0.0,0.0,82,0.00,,,0.00,WUHU216DAVISVP2,2013-07-27 08:02:00,
2013-07-27 01:07:00,55.9,50.5,30.10,SE,135,0.0,0.0,82,0.00,,,0.00,WUHU216DAVISVP2,2013-07-27 08:07:00,
2013-07-27 01:12:00,55.5,50.1,30.10,SE,135,0.0,0.0,82,0.00,,,0.00,WUHU216DAVISVP2,2013-07-27 08:12:00,
2013-07-27 01:17:00,55.3,49.9,30.10,SE,135,0.0,0.0,82,0.00,,,0.00,WUHU216DAVISVP2,2013-07-27 08:17:00,
2013-07-27 01:22:00,55.0,49.9,30.10,SE,135,0.0,0.0,83,0.00,,,0.00,WUHU216DAVISVP2,2013-07-27 08:22:00,
2013-07-27 01:27:00,54.8,49.7,30.10,SE,135,0.0,0.0,83,0.00,,,0.00,WUHU216DAVISVP2,2013-07-27 08:27:00,
2013-07-27 01:32:00,54.6,49.9,30.10,SE,135,0.0,0.0,84,0.00,,,0.00,WUHU216DAVISVP2,2013-07-27 08:32:00,
2013-07-27 01:37:00,54.4,49.7,30.10,SE,135,0.0,0.0,84,0.00,,,0.00,WUHU216DAVISVP2,2013-07-27 08:37:00,
2013-07-27 01:42:00,54.2,49.8,30.10,SE,135,0.0,0.0,85,0.00,,,0.00,WUHU216DAVISVP2,2013-07-27 08:42:00,
2013-07-27 01:47:00,54.0,49.6,30.10,SE,135,0.0,0.0,85,0.00,,,0.00,WUHU216DAVISVP2,2013-07-27 08:47:00,
2013-07-27 01:52:00,53.8,49.7,30.10,SE,135,0.0,0.0,86,0.00,,,0.00,WUHU216DAVISVP2,2013-07-27 08:52:00,
2013-07-27 01:57:00,53.6,49.5,30.10,SE,135,0.0,0.0,86,0.00,,,0.00,WUHU216DAVISVP2,2013-07-27 08:57:00,
2013-07-27 02:02:00,53.5,49.7,30.10,SE,135,0.0,0.0,87,0.00,,,0.00,WUHU216DAVISVP2,2013-07-27 09:02:00,
2013-07-27 02:07:00,53.4,49.6,30.10,SE,135,0.0,0.0,87,0.00,,,0.00,WUHU216DAVISVP2,2013-07-27 09:07:00,
2013-07-27 02:12:00,53.3,49.5,30.10,SE,135,0.0,0.0,87,0.00,,,0.00,WUHU216DAVISVP2,2013-07-27 09:12:00,
2013-07-27 02:17:00,53.1,49.3,30.10,SE,135,0.0,0.0,87,0.00,,,0.00,WUHU216DAVISVP2,2013-07-27 09:17:00,
2013-07-27 02:22:00,52.9,49.1,30.10,SE,135,0.0,0.0,87,0.00,,,0.00,WUHU216DAVISVP2,2013-07-27 09:22:00,
2013-07-27 02:27:00,52.7,48.9,30.11,SE,135,0.0,0.0,87,0.00,,,0.00,WUHU216DAVISVP2,2013-07-27 09:27:00,
2013-07-27 02:32:00,52.5,48.7,30.11,SE,135,0.0,0.0,87,0.00,,,0.00,WUHU216DAVISVP2,2013-07-27 09:32:00,
2013-07-27 02:37:00,52.3,48.8,30.11,SE,135,0.0,0.0,88,0.00,,,0.00,WUHU216DAVISVP2,2013-07-27 09:37:00,
2013-07-27 02:42:00,52.2,49.0,30.11,SE,135,0.0,0.0,89,0.00,,,0.00,WUHU216DAVISVP2,2013-07-27 09:42:00,
2013-07-27 02:47:00,52.1,48.9,30.11,SE,135,0.0,0.0,89,0.00,,,0.00,WUHU216DAVISVP2,2013-07-27 09:47:00,
2013-07-27 02:52:00,51.9,48.7,30.12,SE,135,0.0,0.0,89,0.00,,,0.00,WUHU216DAVISVP2,2013-07-27 09:52:00,
2013-07-27 02:57:00,51.8,48.6,30.12,SE,135,0.0,0.0,89,0.00,,,0.00,WUHU216DAVISVP2,2013-07-27 09:57:00,
2013-07-27 03:02:00,51.6,48.7,30.12,SE,135,0.0,0.0,90,0.00,,,0.00,WUHU216DAVISVP2,2013-07-27 10:02:00,
2013-07-27 03:07:00,51.5,48.6,30.12,SE,135,0.0,0.0,90,0.00,,,0.00,WUHU216DAVISVP2,2013-07-27 10:07:00,
2013-07-27 03:12:00,51.5,48.9,30.11,SE,135,0.0,0.0,91,0.00,,,0.00,WUHU216DAVISVP2,2013-07-27 10:12:00,
2013-07-27 03:17:00,51.4,48.8,30.11,SE,135,0.0,0.0,91,0.00,,,0.00,WUHU216DAVISVP2,2013-07-27 10:17:00,
2013-07-27 03:22:00,51.3,48.7,30.11,SE,135,0.0,0.0,91,0.00,,,0.00,WUHU216DAVISVP2,2013-07-27 10:22:00,
2013-07-27 03:27:00,51.1,48.2,30.12,SE,135,0.0,0.0,90,0.00,,,0.00,WUHU216DAVISVP2,2013-07-27 10:27:00,
2013-07-27 03:32:00,50.9,48.3,30.11,SE,135,0.0,0.0,91,0.00,,,0.00,WUHU216DAVISVP2,2013-07-27 10:32:00,
2013-07-27 03:33:00,50.9,48.3,30.11,SE,135,0.0,0.0,91,0.00,,,0.00,WUHU216DAVISVP2,2013-07-27 10:33:00,
2013-07-27 03:38:00,50.7,47.8,30.11,SE,135,0.0,0.0,90,0.00,,,0.00,WUHU216DAVISVP2,2013-07-27 10:38:00,
2013-07-27 03:43:00,50.6,48.0,30.11,SE,135,0.0,0.0,91,0.00,,,0.00,WUHU216DAVISVP2,2013-07-27 10:43:00,
2013-07-27 03:48:00,50.4,47.8,30.11,SE,135,0.0,0.0,91,0.00,,,0.00,WUHU216DAVISVP2,2013-07-27 10:48:00,
2013-07-27 03:53:00,50.3,47.7,30.11,SE,135,0.0,0.0,91,0.00,,,0.00,WUHU216DAVISVP2,2013-07-27 10:53:00,
2013-07-27 03:58:00,50.1,47.8,30.11,SE,135,0.0,0.0,92,0.00,,,0.00,WUHU216DAVISVP2,2013-07-27 10:58:00,
2013-07-27 04:03:00,50.1,47.8,30.11,SE,135,0.0,0.0,92,0.00,,,0.00,WUHU216DAVISVP2,2013-07-27 11:03:00,
2013-07-27 04:08:00,50.0,47.7,30.11,SE,135,0.0,0.0,92,0.00,,,0.00,WUHU216DAVISVP2,2013-07-27 11:08:00,
2013-07-27 04:13:00,49.9,47.6,30.11,SE,135,0.0,0.0,92,0.00,,,0.00,WUHU216DAVISVP2,2013-07-27 11:13:00,
2013-07-27 04:18:00,49.7,47.4,30.11,SE,135,0.0,0.0,92,0.00,,,0.00,WUHU216DAVISVP2,2013-07-27 11:18:00,
2013-07-27 04:23:00,49.5,47.2,30.11,SE,135,0.0,0.0,92,0.00,,,0.00,WUHU216DAVISVP2,2013-07-27 11:23:00,
2013-07-27 04:28:00,49.4,47.1,30.11,SE,135,0.0,0.0,92,0.00,,,0.00,WUHU216DAVISVP2,2013-07-27 11:28:00,
2013-07-27 04:33:00,49.2,46.9,30.11,SE,135,0.0,0.0,92,0.00,,,0.00,WUHU216DAVISVP2,2013-07-27 11:33:00,
2013-07-27 04:38:00,49.1,46.8,30.11,SE,135,0.0,0.0,92,0.00,,,0.00,WUHU216DAVISVP2,2013-07-27 11:38:00,
2013-07-27 04:43:00,48.9,46.9,30.11,SE,135,0.0,0.0,93,0.00,,,0.00,WUHU216DAVISVP2,2013-07-27 11:43:00,
2013-07-27 04:48:00,48.8,46.8,30.11,SE,135,0.0,0.0,93,0.00,,,0.00,WUHU216DAVISVP2,2013-07-27 11:48:00,
2013-07-27 04:53:00,48.7,46.7,30.11,SE,135,0.0,0.0,93,0.00,,,0.00,WUHU216DAVISVP2,2013-07-27 11:53:00,
2013-07-27 04:58:00,48.5,46.6,30.12,SE,135,0.0,0.0,93,0.00,,,0.00,WUHU216DAVISVP2,2013-07-27 11:58:00,
2013-07-27 05:03:00,48.3,46.3,30.11,SE,135,0.0,0.0,93,0.00,,,0.00,WUHU216DAVISVP2,2013-07-27 12:03:00,
2013-07-27 05:08:00,48.2,46.2,30.12,SE,135,0.0,0.0,93,0.00,,,0.00,WUHU216DAVISVP2,2013-07-27 12:08:00,
2013-07-27 05:13:00,48.1,46.1,30.12,SE,135,0.0,0.0,93,0.00,,,0.00,WUHU216DAVISVP2,2013-07-27 12:13:00,
2013-07-27 05:18:00,48.0,46.0,30.12,SE,135,0.0,0.0,93,0.00,,,0.00,WUHU216DAVISVP2,2013-07-27 12:18:00,
2013-07-27 05:23:00,47.9,46.0,30.12,SE,135,0.0,0.0,93,0.00,,,0.00,WUHU216DAVISVP2,2013-07-27 12:23:00,
2013-07-27 05:28:00,47.8,45.8,30.12,SE,135,0.0,0.0,93,0.00,,,0.00,WUHU216DAVISVP2,2013-07-27 12:28:00,
2013-07-27 05:33:00,47.8,46.1,30.12,SE,135,0.0,0.0,94,0.00,,,0.00,WUHU216DAVISVP2,2013-07-27 12:33:00,
2013-07-27 05:38:00,47.8,46.1,30.12,SE,135,0.0,0.0,94,0.00,,,0.00,WUHU216DAVISVP2,2013-07-27 12:38:00,
2013-07-27 05:43:00,47.6,45.7,30.12,SE,135,0.0,0.0,93,0.00,,,0.00,WUHU216DAVISVP2,2013-07-27 12:43:00,
2013-07-27 05:48:00,47.5,45.6,30.13,SE,135,0.0,0.0,93,0.00,,,0.00,WUHU216DAVISVP2,2013-07-27 12:48:00,
2013-07-27 05:53:00,47.4,45.4,30.12,SE,135,0.0,0.0,93,0.00,,,0.00,WUHU216DAVISVP2,2013-07-27 12:53:00,
2013-07-27 05:58:00,47.2,45.5,30.12,SE,135,0.0,0.0,94,0.00,,,0.00,WUHU216DAVISVP2,2013-07-27 12:58:00,
2013-07-27 06:03:00,47.2,45.5,30.12,SE,135,0.0,0.0,94,0.00,,,0.00,WUHU216DAVISVP2,2013-07-27 13:03:00,
2013-07-27 06:08:00,47.2,45.6,30.12,SE,135,0.0,0.0,94,0.00,,,0.00,WUHU216DAVISVP2,2013-07-27 13:08:00,
2013-07-27 06:13:00,47.1,45.5,30.12,SE,135,0.0,0.0,94,0.00,,,0.00,WUHU216DAVISVP2,2013-07-27 13:13:00,
2013-07-27 06:18:00,47.0,45.3,30.12,SE,135,0.0,0.0,94,0.00,,,0.00,WUHU216DAVISVP2,2013-07-27 13:18:00,
2013-07-27 06:23:00,46.9,45.2,30.12,SE,135,0.0,0.0,94,0.00,,,0.00,WUHU216DAVISVP2,2013-07-27 13:23:00,
2013-07-27 06:28:00,46.8,45.1,30.12,SE,135,0.0,0.0,94,0.00,,,0.00,WUHU216DAVISVP2,2013-07-27 13:28:00,
2013-07-27 06:33:00,46.7,45.0,30.12,SE,135,0.0,0.0,94,0.00,,,0.00,WUHU216DAVISVP2,2013-07-27 13:33:00,
2013-07-27 06:38:00,47.0,45.6,30.12,SE,135,0.0,0.0,95,0.00,,,0.00,WUHU216DAVISVP2,2013-07-27 13:38:00,
2013-07-27 06:43:00,47.4,46.0,30.12,SE,135,0.0,0.0,95,0.00,,,0.00,WUHU216DAVISVP2,2013-07-27 13:43:00,
2013-07-27 06:44:00,47.5,46.1,30.12,SE,135,0.0,0.0,95,0.00,,,0.00,WUHU216DAVISVP2,2013-07-27 13:44:00,
2013-07-27 06:49:00,47.6,46.2,30.12,SE,135,0.0,0.0,95,0.00,,,0.00,WUHU216DAVISVP2,2013-07-27 13:49:00,
2013-07-27 06:54:00,47.6,46.2,30.13,SE,135,0.0,0.0,95,0.00,,,0.00,WUHU216DAVISVP2,2013-07-27 13:54:00,
2013-07-27 06:59:00,47.7,46.0,30.12,SE,135,0.0,0.0,94,0.00,,,0.00,WUHU216DAVISVP2,2013-07-27 13:59:00,
2013-07-27 07:04:00,47.8,46.1,30.12,SE,135,0.0,0.0,94,0.00,,,0.00,WUHU216DAVISVP2,2013-07-27 14:04:00,
2013-07-27 07:09:00,48.0,46.6,30.12,SE,135,0.0,0.0,95,0.00,,,0.00,WUHU216DAVISVP2,2013-07-27 14:09:00,
2013-07-27 07:14:00,48.3,46.6,30.13,SE,135,0.0,0.0,94,0.00,,,0.00,WUHU216DAVISVP2,2013-07-27 14:14:00,
2013-07-27 07:19:00,48.5,46.8,30.13,SE,135,0.0,0.0,94,0.00,,,0.00,WUHU216DAVISVP2,2013-07-27 14:19:00,
2013-07-27 07:24:00,48.7,47.0,30.13,SE,135,0.0,0.0,94,0.00,,,0.00,WUHU216DAVISVP2,2013-07-27 14:24:00,
2013-07-27 07:29:00,48.9,47.2,30.13,SE,135,0.0,0.0,94,0.00,,,0.00,WUHU216DAVISVP2,2013-07-27 14:29:00,
2013-07-27 07:34:00,49.3,47.6,30.13,SE,135,0.0,0.0,94,0.00,,,0.00,WUHU216DAVISVP2,2013-07-27 14:34:00,
2013-07-27 07:39:00,49.8,48.1,30.13,North,11,0.0,0.0,94,0.00,,,0.00,WUHU216DAVISVP2,2013-07-27 14:39:00,
2013-07-27 07:44:00,50.5,48.5,30.13,NNE,28,0.0,1.0,93,0.00,,,0.00,WUHU216DAVISVP2,2013-07-27 14:44:00,
2013-07-27 07:49:00,51.0,48.7,30.13,NNE,28,0.0,1.0,92,0.00,,,0.00,WUHU216DAVISVP2,2013-07-27 14:49:00,
2013-07-27 07:54:00,51.3,49.0,30.13,NNE,28,0.0,0.0,92,0.00,,,0.00,WUHU216DAVISVP2,2013-07-27 14:54:00,
2013-07-27 07:59:00,51.4,49.1,30.14,NNW,338,0.0,1.0,92,0.00,,,0.00,WUHU216DAVISVP2,2013-07-27 14:59:00,
2013-07-27 08:04:00,51.8,49.2,30.13,ENE,72,0.0,1.0,91,0.00,,,0.00,WUHU216DAVISVP2,2013-07-27 15:04:00,
2013-07-27 08:09:00,52.2,49.3,30.13,North,355,2.0,2.0,90,0.00,,,0.00,WUHU216DAVISVP2,2013-07-27 15:09:00,
2013-07-27 08:14:00,52.7,49.8,30.14,NE,39,0.0,3.0,90,0.00,,,0.00,WUHU216DAVISVP2,2013-07-27 15:14:00,
2013-07-27 08:19:00,53.2,50.0,30.14,NE,40,0.0,3.0,89,0.00,,,0.00,WUHU216DAVISVP2,2013-07-27 15:19:00,
2013-07-27 08:24:00,53.6,50.1,30.14,North,350,0.0,1.0,88,0.00,,,0.00,WUHU216DAVISVP2,2013-07-27 15:24:00,
2013-07-27 08:29:00,54.0,50.2,30.13,NNE,15,0.0,1.0,87,0.00,,,0.00,WUHU216DAVISVP2,2013-07-27 15:29:00,
2013-07-27 08:34:00,54.2,50.4,30.14,North,355,0.0,1.0,87,0.00,,,0.00,WUHU216DAVISVP2,2013-07-27 15:34:00,
2013-07-27 08:39:00,54.4,50.6,30.13,West,268,0.0,1.0,87,0.00,,,0.00,WUHU216DAVISVP2,2013-07-27 15:39:00,
2013-07-27 08:44:00,54.5,50.7,30.13,West,259,0.0,1.0,87,0.00,,,0.00,WUHU216DAVISVP2,2013-07-27 15:44:00,
2013-07-27 08:49:00,54.6,50.5,30.14,SW,217,1.0,3.0,86,0.00,,,0.00,WUHU216DAVISVP2,2013-07-27 15:49:00,
2013-07-27 08:54:00,54.9,50.5,30.14,North,351,2.0,3.0,85,0.00,,,0.00,WUHU216DAVISVP2,2013-07-27 15:54:00,
2013-07-27 08:59:00,55.2,50.5,30.13,North,9,0.0,2.0,84,0.00,,,0.00,WUHU216DAVISVP2,2013-07-27 15:59:00,
2013-07-27 09:04:00,55.5,50.8,30.13,NNE,17,1.0,2.0,84,0.00,,,0.00,WUHU216DAVISVP2,2013-07-27 16:04:00,
2013-07-27 09:09:00,55.9,50.8,30.13,NNE,30,1.0,4.0,83,0.00,,,0.00,WUHU216DAVISVP2,2013-07-27 16:09:00,
2013-07-27 09:14:00,56.2,51.1,30.13,NNW,342,0.0,4.0,83,0.00,,,0.00,WUHU216DAVISVP2,2013-07-27 16:14:00,
2013-07-27 09:19:00,56.5,51.1,30.13,NE,40,0.0,3.0,82,0.00,,,0.00,WUHU216DAVISVP2,2013-07-27 16:19:00,
2013-07-27 09:24:00,57.1,51.4,30.12,NNW,341,0.0,1.0,81,0.00,,,0.00,WUHU216DAVISVP2,2013-07-27 16:24:00,
2013-07-27 09:29:00,57.3,51.2,30.12,North,355,0.0,2.0,80,0.00,,,0.00,WUHU216DAVISVP2,2013-07-27 16:29:00,
2013-07-27 09:34:00,57.7,51.6,30.12,WSW,238,0.0,2.0,80,0.00,,,0.00,WUHU216DAVISVP2,2013-07-27 16:34:00,
2013-07-27 09:39:00,58.2,51.4,30.12,West,261,0.0,1.0,78,0.00,,,0.00,WUHU216DAVISVP2,2013-07-27 16:39:00,
2013-07-27 09:44:00,58.5,52.1,30.12,WNW,287,0.0,1.0,79,0.00,,,0.00,WUHU216DAVISVP2,2013-07-27 16:44:00,
2013-07-27 09:49:00,59.0,51.9,30.12,NNW,330,0.0,2.0,77,0.00,,,0.00,WUHU216DAVISVP2,2013-07-27 16:49:00,
2013-07-27 09:54:00,59.2,51.7,30.12,NNW,339,1.0,2.0,76,0.00,,,0.00,WUHU216DAVISVP2,2013-07-27 16:54:00,
2013-07-27 09:59:00,59.3,51.5,30.12,WNW,285,0.0,4.0,75,0.00,,,0.00,WUHU216DAVISVP2,2013-07-27 16:59:00,
2013-07-27 10:04:00,59.6,51.8,30.12,NW,321,0.0,4.0,75,0.00,,,0.00,WUHU216DAVISVP2,2013-07-27 17:04:00,
2013-07-27 10:09:00,60.0,52.2,30.12,North,351,1.0,3.0,75,0.00,,,0.00,WUHU216DAVISVP2,2013-07-27 17:09:00,
2013-07-27 10:14:00,60.5,52.3,30.12,NNW,330,2.0,3.0,74,0.00,,,0.00,WUHU216DAVISVP2,2013-07-27 17:14:00,
2013-07-27 10:19:00,60.7,52.5,30.11,NE,44,0.0,3.0,74,0.00,,,0.00,WUHU216DAVISVP2,2013-07-27 17:19:00,
2013-07-27 10:24:00,61.2,52.6,30.12,NNE,21,1.0,3.0,73,0.00,,,0.00,WUHU216DAVISVP2,2013-07-27 17:24:00,
2013-07-27 10:29:00,61.6,52.6,30.12,NNW,348,3.0,4.0,72,0.00,,,0.00,WUHU216DAVISVP2,2013-07-27 17:29:00,
2013-07-27 10:34:00,61.3,52.3,30.11,NNW,348,0.0,4.0,72,0.00,,,0.00,WUHU216DAVISVP2,2013-07-27 17:34:00,
2013-07-27 10:39:00,61.9,52.9,30.11,SSE,153,3.0,3.0,72,0.00,,,0.00,WUHU216DAVISVP2,2013-07-27 17:39:00,
2013-07-27 10:44:00,62.4,53.4,30.11,SSW,211,0.0,3.0,72,0.00,,,0.00,WUHU216DAVISVP2,2013-07-27 17:44:00,
2013-07-27 10:49:00,62.9,53.1,30.11,SSW,211,1.0,3.0,70,0.00,,,0.00,WUHU216DAVISVP2,2013-07-27 17:49:00,
2013-07-27 10:54:00,63.4,53.6,30.11,NNW,328,0.0,2.0,70,0.00,,,0.00,WUHU216DAVISVP2,2013-07-27 17:54:00,
2013-07-27 10:59:00,63.7,53.1,30.11,West,281,0.0,6.0,68,0.00,,,0.00,WUHU216DAVISVP2,2013-07-27 17:59:00,
2013-07-27 11:04:00,63.9,52.9,30.11,East,79,1.0,6.0,67,0.00,,,0.00,WUHU216DAVISVP2,2013-07-27 18:04:00,
2013-07-27 11:09:00,64.1,53.1,30.11,WSW,254,1.0,2.0,67,0.00,,,0.00,WUHU216DAVISVP2,2013-07-27 18:09:00,
2013-07-27 11:14:00,64.4,53.8,30.11,North,5,2.0,4.0,68,0.00,,,0.00,WUHU216DAVISVP2,2013-07-27 18:14:00,
2013-07-27 11:19:00,64.6,53.1,30.11,NNW,338,1.0,4.0,66,0.00,,,0.00,WUHU216DAVISVP2,2013-07-27 18:19:00,
2013-07-27 11:24:00,65.1,53.2,30.10,SW,215,0.0,4.0,65,0.00,,,0.00,WUHU216DAVISVP2,2013-07-27 18:24:00,
2013-07-27 11:29:00,65.1,52.8,30.10,SSW,213,5.0,5.0,64,0.00,,,0.00,WUHU216DAVISVP2,2013-07-27 18:29:00,
2013-07-27 11:34:00,64.5,53.5,30.10,NE,36,3.0,5.0,67,0.00,,,0.00,WUHU216DAVISVP2,2013-07-27 18:34:00,
2013-07-27 11:39:00,64.6,53.0,30.10,North,355,0.0,6.0,66,0.00,,,0.00,WUHU216DAVISVP2,2013-07-27 18:39:00,
2013-07-27 11:44:00,64.8,53.3,30.10,NNE,16,2.0,6.0,66,0.00,,,0.00,WUHU216DAVISVP2,2013-07-27 18:44:00,
2013-07-27 11:49:00,65.2,53.7,30.10,SSW,200,1.0,5.0,66,0.00,,,0.00,WUHU216DAVISVP2,2013-07-27 18:49:00,
2013-07-27 11:54:00,66.1,53.6,30.10,North,9,5.0,5.0,64,0.00,,,0.00,WUHU216DAVISVP2,2013-07-27 18:54:00,
2013-07-27 11:59:00,66.2,54.3,30.10,North,9,0.0,5.0,65,0.00,,,0.00,WUHU216DAVISVP2,2013-07-27 18:59:00,
2013-07-27 12:04:00,66.6,53.3,30.10,North,351,2.0,6.0,62,0.00,,,0.00,WUHU216DAVISVP2,2013-07-27 19:04:00,
2013-07-27 12:09:00,66.5,53.1,30.10,North,350,3.0,7.0,62,0.00,,,0.00,WUHU216DAVISVP2,2013-07-27 19:09:00,
2013-07-27 12:14:00,66.3,53.5,30.09,WSW,255,1.0,7.0,63,0.00,,,0.00,WUHU216DAVISVP2,2013-07-27 19:14:00,
2013-07-27 12:19:00,66.7,53.0,30.08,NW,324,1.0,7.0,61,0.00,,,0.00,WUHU216DAVISVP2,2013-07-27 19:19:00,
2013-07-27 12:24:00,66.9,53.5,30.09,North,5,2.0,7.0,62,0.00,,,0.00,WUHU216DAVISVP2,2013-07-27 19:24:00,
2013-07-27 12:29:00,67.6,54.7,30.09,NNW,340,1.0,4.0,63,0.00,,,0.00,WUHU216DAVISVP2,2013-07-27 19:29:00,
2013-07-27 12:34:00,67.9,54.4,30.08,NW,323,2.0,4.0,62,0.00,,,0.00,WUHU216DAVISVP2,2013-07-27 19:34:00,
2013-07-27 12:39:00,67.7,53.5,30.08,West,276,2.0,10.0,60,0.00,,,0.00,WUHU216DAVISVP2,2013-07-27 19:39:00,
2013-07-27 12:44:00,67.5,55.1,30.08,NE,44,2.0,10.0,64,0.00,,,0.00,WUHU216DAVISVP2,2013-07-27 19:44:00,
2013-07-27 12:49:00,67.9,53.7,30.08,ENE,57,1.0,4.0,60,0.00,,,0.00,WUHU216DAVISVP2,2013-07-27 19:49:00,
2013-07-27 12:54:00,67.7,53.5,30.08,SW,227,1.0,5.0,60,0.00,,,0.00,WUHU216DAVISVP2,2013-07-27 19:54:00,
2013-07-27 12:59:00,68.0,54.2,30.08,SSW,213,4.0,6.0,61,0.00,,,0.00,WUHU216DAVISVP2,2013-07-27 19:59:00,
2013-07-27 13:04:00,67.9,53.7,30.08,NE,53,2.0,6.0,60,0.00,,,0.00,WUHU216DAVISVP2,2013-07-27 20:04:00,
2013-07-27 13:09:00,68.2,54.9,30.08,North,355,0.0,5.0,62,0.00,,,0.00,WUHU216DAVISVP2,2013-07-27 20:09:00,
2013-07-27 13:14:00,68.6,53.9,30.07,ESE,102,0.0,5.0,59,0.00,,,0.00,WUHU216DAVISVP2,2013-07-27 20:14:00,
2013-07-27 13:19:00,68.9,54.6,30.07,NNE,27,5.0,5.0,60,0.00,,,0.00,WUHU216DAVISVP2,2013-07-27 20:19:00,
2013-07-27 13:24:00,68.8,54.1,30.07,NW,315,0.0,5.0,59,0.00,,,0.00,WUHU216DAVISVP2,2013-07-27 20:24:00,
2013-07-27 13:29:00,69.0,53.8,30.07,ENE,65,0.0,4.0,58,0.00,,,0.00,WUHU216DAVISVP2,2013-07-27 20:29:00,
2013-07-27 13:34:00,69.3,54.5,30.07,SSW,207,1.0,3.0,59,0.00,,,0.00,WUHU216DAVISVP2,2013-07-27 20:34:00,
2013-07-27 13:39:00,69.5,54.7,30.07,NNE,15,4.0,4.0,59,0.00,,,0.00,WUHU216DAVISVP2,2013-07-27 20:39:00,
2013-07-27 13:44:00,69.5,54.7,30.07,SSW,205,1.0,7.0,59,0.00,,,0.00,WUHU216DAVISVP2,2013-07-27 20:44:00,
2013-07-27 13:49:00,69.7,54.9,30.07,NNW,340,0.0,7.0,59,0.00,,,0.00,WUHU216DAVISVP2,2013-07-27 20:49:00,
2013-07-27 13:54:00,70.3,55.8,30.06,North,351,0.0,3.0,60,0.00,,,0.00,WUHU216DAVISVP2,2013-07-27 20:54:00,
2013-07-27 13:59:00,70.9,54.6,30.06,NNE,28,4.0,7.0,56,0.00,,,0.00,WUHU216DAVISVP2,2013-07-27 20:59:00,
2013-07-27 14:04:00,70.7,54.2,30.06,NNE,15,0.0,7.0,56,0.00,,,0.00,WUHU216DAVISVP2,2013-07-27 21:04:00,
2013-07-27 14:09:00,71.0,54.7,30.06,North,350,5.0,7.0,56,0.00,,,0.00,WUHU216DAVISVP2,2013-07-27 21:09:00,
2013-07-27 14:14:00,70.7,54.7,30.05,WNW,294,3.0,5.0,57,0.00,,,0.00,WUHU216DAVISVP2,2013-07-27 21:14:00,
2013-07-27 14:19:00,71.0,55.2,30.05,West,265,1.0,5.0,57,0.00,,,0.00,WUHU216DAVISVP2,2013-07-27 21:19:00,
2013-07-27 14:24:00,71.5,55.0,30.05,NE,38,2.0,5.0,56,0.00,,,0.00,WUHU216DAVISVP2,2013-07-27 21:24:00,
2013-07-27 14:29:00,72.1,55.2,30.05,West,265,1.0,5.0,55,0.00,,,0.00,WUHU216DAVISVP2,2013-07-27 21:29:00,
2013-07-27 14:34:00,72.2,55.1,30.05,SSW,211,2.0,5.0,55,0.00,,,0.00,WUHU216DAVISVP2,2013-07-27 21:34:00,
2013-07-27 14:39:00,72.2,55.3,30.05,WSW,246,0.0,4.0,55,0.00,,,0.00,WUHU216DAVISVP2,2013-07-27 21:39:00,
2013-07-27 14:44:00,72.5,55.0,30.05,West,281,3.0,5.0,54,0.00,,,0.00,WUHU216DAVISVP2,2013-07-27 21:44:00,
2013-07-27 14:49:00,72.7,54.7,30.05,WNW,290,1.0,5.0,53,0.00,,,0.00,WUHU216DAVISVP2,2013-07-27 21:49:00,
2013-07-27 14:54:00,73.0,55.0,30.04,SW,217,0.0,4.0,53,0.00,,,0.00,WUHU216DAVISVP2,2013-07-27 21:54:00,
2013-07-27 14:59:00,73.2,55.2,30.04,West,279,1.0,5.0,53,0.00,,,0.00,WUHU216DAVISVP2,2013-07-27 21:59:00,
2013-07-27 15:04:00,72.9,54.3,30.04,SW,218,6.0,10.0,52,0.00,,,0.00,WUHU216DAVISVP2,2013-07-27 22:04:00,
2013-07-27 15:09:00,72.5,54.5,30.04,NW,312,0.0,10.0,53,0.00,,,0.00,WUHU216DAVISVP2,2013-07-27 22:09:00,
2013-07-27 15:14:00,72.6,54.5,30.04,WSW,257,2.0,9.0,53,0.00,,,0.00,WUHU216DAVISVP2,2013-07-27 22:14:00,
2013-07-27 15:19:00,73.0,55.0,30.04,WSW,240,3.0,6.0,53,0.00,,,0.00,WUHU216DAVISVP2,2013-07-27 22:19:00,
2013-07-27 15:24:00,73.3,54.2,30.04,West,274,5.0,6.0,51,0.00,,,0.00,WUHU216DAVISVP2,2013-07-27 22:24:00,
2013-07-27 15:29:00,73.1,54.5,30.04,SW,221,0.0,5.0,52,0.00,,,0.00,WUHU216DAVISVP2,2013-07-27 22:29:00,
2013-07-27 15:34:00,72.9,53.8,30.04,WSW,250,2.0,10.0,51,0.00,,,0.00,WUHU216DAVISVP2,2013-07-27 22:34:00,
2013-07-27 15:39:00,73.2,52.9,30.04,North,360,3.0,10.0,49,0.00,,,0.00,WUHU216DAVISVP2,2013-07-27 22:39:00,
2013-07-27 15:44:00,73.6,53.3,30.03,NE,53,1.0,5.0,49,0.00,,,0.00,WUHU216DAVISVP2,2013-07-27 22:44:00,
2013-07-27 15:49:00,73.5,53.2,30.03,SW,214,6.0,9.0,49,0.00,,,0.00,WUHU216DAVISVP2,2013-07-27 22:49:00,
2013-07-27 15:54:00,73.5,53.2,30.03,NNW,336,3.0,9.0,49,0.00,,,0.00,WUHU216DAVISVP2,2013-07-27 22:54:00,
2013-07-27 15:59:00,73.6,54.4,30.03,SW,222,0.0,4.0,51,0.00,,,0.00,WUHU216DAVISVP2,2013-07-27 22:59:00,
2013-07-27 16:04:00,74.0,55.4,30.03,WSW,246,2.0,5.0,52,0.00,,,0.00,WUHU216DAVISVP2,2013-07-27 23:04:00,
2013-07-27 16:09:00,73.9,53.6,30.02,WSW,239,1.0,8.0,49,0.00,,,0.00,WUHU216DAVISVP2,2013-07-27 23:09:00,
2013-07-27 16:14:00,73.7,52.8,30.02,NW,325,1.0,8.0,48,0.00,,,0.00,WUHU216DAVISVP2,2013-07-27 23:14:00,
2013-07-27 16:19:00,73.8,52.9,30.02,SW,223,3.0,5.0,48,0.00,,,0.00,WUHU216DAVISVP2,2013-07-27 23:19:00,
2013-07-27 16:24:00,73.8,52.3,30.02,West,265,1.0,4.0,47,0.00,,,0.00,WUHU216DAVISVP2,2013-07-27 23:24:00,
2013-07-27 16:29:00,74.1,52.6,30.02,West,259,1.0,4.0,47,0.00,,,0.00,WUHU216DAVISVP2,2013-07-27 23:29:00,
2013-07-27 16:34:00,74.3,52.2,30.02,West,265,0.0,4.0,46,0.00,,,0.00,WUHU216DAVISVP2,2013-07-27 23:34:00,
2013-07-27 16:39:00,74.7,54.3,30.01,SW,225,3.0,3.0,49,0.00,,,0.00,WUHU216DAVISVP2,2013-07-27 23:39:00,
2013-07-27 16:44:00,74.8,53.2,30.01,West,281,2.0,4.0,47,0.00,,,0.00,WUHU216DAVISVP2,2013-07-27 23:44:00,
2013-07-27 16:49:00,75.2,53.0,30.01,SSE,161,1.0,4.0,46,0.00,,,0.00,WUHU216DAVISVP2,2013-07-27 23:49:00,
2013-07-27 16:54:00,75.0,53.4,30.01,NW,315,5.0,5.0,47,0.00,,,0.00,WUHU216DAVISVP2,2013-07-27 23:54:00,
2013-07-27 16:59:00,75.0,54.0,30.01,WSW,250,1.0,5.0,48,0.00,,,0.00,WUHU216DAVISVP2,2013-07-27 23:59:00,
2013-07-27 17:04:00,74.7,53.2,30.00,SSW,211,4.0,4.0,47,0.00,,,0.00,WUHU216DAVISVP2,2013-07-28 00:04:00,
2013-07-27 17:09:00,74.3,53.4,30.00,WSW,241,3.0,5.0,48,0.00,,,0.00,WUHU216DAVISVP2,2013-07-28 00:09:00,
2013-07-27 17:14:00,74.4,52.9,30.00,NW,322,1.0,5.0,47,0.00,,,0.00,WUHU216DAVISVP2,2013-07-28 00:14:00,
2013-07-27 17:19:00,74.7,53.8,30.00,NNW,327,1.0,4.0,48,0.00,,,0.00,WUHU216DAVISVP2,2013-07-28 00:19:00,
2013-07-27 17:24:00,74.8,53.8,30.00,West,273,0.0,4.0,48,0.00,,,0.00,WUHU216DAVISVP2,2013-07-28 00:24:00,
2013-07-27 17:29:00,75.0,53.4,30.00,SW,215,2.0,4.0,47,0.00,,,0.00,WUHU216DAVISVP2,2013-07-28 00:29:00,
2013-07-27 17:34:00,75.0,52.2,30.00,North,355,5.0,5.0,45,0.00,,,0.00,WUHU216DAVISVP2,2013-07-28 00:34:00,
2013-07-27 17:39:00,74.8,51.4,30.00,NW,317,0.0,5.0,44,0.00,,,0.00,WUHU216DAVISVP2,2013-07-28 00:39:00,
2013-07-27 17:44:00,74.9,52.1,30.00,SW,223,2.0,6.0,45,0.00,,,0.00,WUHU216DAVISVP2,2013-07-28 00:44:00,
2013-07-27 17:49:00,74.9,52.1,30.00,SW,217,5.0,6.0,45,0.00,,,0.00,WUHU216DAVISVP2,2013-07-28 00:49:00,
2013-07-27 17:54:00,74.5,51.8,29.99,SW,223,3.0,5.0,45,0.00,,,0.00,WUHU216DAVISVP2,2013-07-28 00:54:00,
2013-07-27 17:59:00,74.4,52.3,29.99,WNW,293,1.0,4.0,46,0.00,,,0.00,WUHU216DAVISVP2,2013-07-28 00:59:00,
2013-07-27 18:05:00,74.4,51.1,29.99,NNW,344,1.0,6.0,44,0.00,,,0.00,WUHU216DAVISVP2,2013-07-28 01:05:00,
2013-07-27 18:10:00,74.5,51.1,29.99,West,269,1.0,6.0,44,0.00,,,0.00,WUHU216DAVISVP2,2013-07-28 01:10:00,
2013-07-27 18:15:00,74.4,51.0,29.99,NW,310,0.0,4.0,44,0.00,,,0.00,WUHU216DAVISVP2,2013-07-28 01:15:00,
2013-07-27 18:20:00,74.4,51.0,29.99,West,269,1.0,4.0,44,0.00,,,0.00,WUHU216DAVISVP2,2013-07-28 01:20:00,
2013-07-27 18:25:00,74.6,51.8,29.99,WSW,255,2.0,4.0,45,0.00,,,0.00,WUHU216DAVISVP2,2013-07-28 01:25:00,
2013-07-27 18:30:00,74.7,50.7,29.98,SSW,211,2.0,3.0,43,0.00,,,0.00,WUHU216DAVISVP2,2013-07-28 01:30:00,
2013-07-27 18:35:00,74.7,51.9,29.99,SW,216,4.0,4.0,45,0.00,,,0.00,WUHU216DAVISVP2,2013-07-28 01:35:00,
2013-07-27 18:40:00,74.6,53.7,29.98,NW,308,1.0,5.0,48,0.00,,,0.00,WUHU216DAVISVP2,2013-07-28 01:40:00,
2013-07-27 18:45:00,74.5,52.4,29.98,NNW,332,0.0,5.0,46,0.00,,,0.00,WUHU216DAVISVP2,2013-07-28 01:45:00,
2013-07-27 18:50:00,74.6,52.5,29.98,NE,34,0.0,3.0,46,0.00,,,0.00,WUHU216DAVISVP2,2013-07-28 01:50:00,
2013-07-27 18:55:00,74.3,53.4,29.98,NW,312,1.0,5.0,48,0.00,,,0.00,WUHU216DAVISVP2,2013-07-28 01:55:00,
2013-07-27 19:00:00,74.1,54.9,29.98,SSW,210,3.0,5.0,51,0.00,,,0.00,WUHU216DAVISVP2,2013-07-28 02:00:00,
2013-07-27 19:05:00,74.1,54.4,29.98,SW,236,1.0,3.0,50,0.00,,,0.00,WUHU216DAVISVP2,2013-07-28 02:05:00,
2013-07-27 19:10:00,73.9,53.0,29.98,NW,306,1.0,4.0,48,0.00,,,0.00,WUHU216DAVISVP2,2013-07-28 02:10:00,
2013-07-27 19:15:00,73.6,53.3,29.98,North,5,0.0,4.0,49,0.00,,,0.00,WUHU216DAVISVP2,2013-07-28 02:15:00,
2013-07-27 19:20:00,73.1,52.9,29.98,NNW,341,0.0,4.0,49,0.00,,,0.00,WUHU216DAVISVP2,2013-07-28 02:20:00,
2013-07-27 19:21:00,73.0,53.3,29.98,NNW,341,1.0,4.0,50,0.00,,,0.00,WUHU216DAVISVP2,2013-07-28 02:21:00,
2013-07-27 19:26:00,72.8,53.1,29.98,WNW,286,1.0,4.0,50,0.00,,,0.00,WUHU216DAVISVP2,2013-07-28 02:26:00,
2013-07-27 19:31:00,72.5,52.9,29.97,West,275,0.0,1.0,50,0.00,,,0.00,WUHU216DAVISVP2,2013-07-28 02:31:00,
2013-07-27 19:36:00,72.5,52.9,29.98,NW,306,5.0,5.0,50,0.00,,,0.00,WUHU216DAVISVP2,2013-07-28 02:36:00,
2013-07-27 19:41:00,72.3,52.6,29.98,West,274,0.0,5.0,50,0.00,,,0.00,WUHU216DAVISVP2,2013-07-28 02:41:00,
2013-07-27 19:46:00,72.1,53.0,29.98,WSW,254,0.0,2.0,51,0.00,,,0.00,WUHU216DAVISVP2,2013-07-28 02:46:00,
2013-07-27 19:51:00,71.7,53.1,29.98,NNE,12,0.0,6.0,52,0.00,,,0.00,WUHU216DAVISVP2,2013-07-28 02:51:00,
2013-07-27 19:56:00,71.3,53.4,29.97,North,355,0.0,6.0,53,0.00,,,0.00,WUHU216DAVISVP2,2013-07-28 02:56:00,
2013-07-27 20:01:00,71.1,53.7,29.97,North,5,1.0,4.0,54,0.00,,,0.00,WUHU216DAVISVP2,2013-07-28 03:01:00,
2013-07-27 20:06:00,70.8,53.5,29.98,NNW,327,2.0,7.0,54,0.00,,,0.00,WUHU216DAVISVP2,2013-07-28 03:06:00,
2013-07-27 20:11:00,70.5,53.7,29.98,NW,317,3.0,7.0,55,0.00,,,0.00,WUHU216DAVISVP2,2013-07-28 03:11:00,
2013-07-27 20:16:00,70.2,53.4,29.98,North,360,4.0,4.0,55,0.00,,,0.00,WUHU216DAVISVP2,2013-07-28 03:16:00,
2013-07-27 20:21:00,70.0,53.1,29.98,NNW,334,2.0,9.0,55,0.00,,,0.00,WUHU216DAVISVP2,2013-07-28 03:21:00,
2013-07-27 20:26:00,69.7,53.4,29.98,WSW,248,0.0,9.0,56,0.00,,,0.00,WUHU216DAVISVP2,2013-07-28 03:26:00,
2013-07-27 20:31:00,69.5,53.7,29.98,SW,219,2.0,4.0,57,0.00,,,0.00,WUHU216DAVISVP2,2013-07-28 03:31:00,
2013-07-27 20:36:00,69.0,54.7,29.98,SW,230,3.0,3.0,60,0.00,,,0.00,WUHU216DAVISVP2,2013-07-28 03:36:00,
2013-07-27 20:41:00,68.2,54.9,29.98,SW,219,0.0,4.0,62,0.00,,,0.00,WUHU216DAVISVP2,2013-07-28 03:41:00,
2013-07-27 20:46:00,67.5,54.9,29.98,SW,225,2.0,4.0,64,0.00,,,0.00,WUHU216DAVISVP2,2013-07-28 03:46:00,
2013-07-27 20:51:00,66.8,54.8,29.98,SW,217,2.0,5.0,65,0.00,,,0.00,WUHU216DAVISVP2,2013-07-28 03:51:00,
2013-07-27 20:56:00,66.4,54.9,29.98,WSW,249,0.0,5.0,66,0.00,,,0.00,WUHU216DAVISVP2,2013-07-28 03:56:00,
2013-07-27 21:01:00,65.9,54.8,29.99,WSW,250,2.0,3.0,67,0.00,,,0.00,WUHU216DAVISVP2,2013-07-28 04:01:00,
2013-07-27 21:06:00,65.5,54.4,29.99,SW,226,1.0,3.0,67,0.00,,,0.00,WUHU216DAVISVP2,2013-07-28 04:06:00,
2013-07-27 21:12:00,65.2,54.4,29.99,SW,221,1.0,3.0,68,0.00,,,0.00,WUHU216DAVISVP2,2013-07-28 04:12:00,
2013-07-27 21:17:00,64.9,54.2,29.99,SW,221,1.0,2.0,68,0.00,,,0.00,WUHU216DAVISVP2,2013-07-28 04:17:00,
2013-07-27 21:22:00,64.6,54.4,29.99,SW,221,0.0,1.0,69,0.00,,,0.00,WUHU216DAVISVP2,2013-07-28 04:22:00,
2013-07-27 21:27:00,64.3,54.5,29.99,West,272,0.0,2.0,70,0.00,,,0.00,WUHU216DAVISVP2,2013-07-28 04:27:00,
2013-07-27 21:32:00,64.0,54.2,30.00,WSW,248,0.0,2.0,70,0.00,,,0.00,WUHU216DAVISVP2,2013-07-28 04:32:00,
2013-07-27 21:37:00,63.8,54.0,30.00,WSW,248,0.0,1.0,70,0.00,,,0.00,WUHU216DAVISVP2,2013-07-28 04:37:00,
2013-07-27 21:42:00,63.5,54.1,30.00,WSW,248,0.0,0.0,71,0.00,,,0.00,WUHU216DAVISVP2,2013-07-28 04:42:00,
2013-07-27 21:47:00,63.3,54.1,30.00,WSW,248,0.0,0.0,72,0.00,,,0.00,WUHU216DAVISVP2,2013-07-28 04:47:00,
2013-07-27 21:52:00,62.9,53.9,30.00,WSW,241,0.0,1.0,72,0.00,,,0.00,WUHU216DAVISVP2,2013-07-28 04:52:00,
2013-07-27 21:57:00,62.6,54.0,30.00,WSW,241,0.0,1.0,73,0.00,,,0.00,WUHU216DAVISVP2,2013-07-28 04:57:00,
2013-07-27 22:02:00,62.3,54.0,30.00,WSW,241,0.0,0.0,74,0.00,,,0.00,WUHU216DAVISVP2,2013-07-28 05:02:00,
2013-07-27 22:07:00,62.0,54.0,30.00,WSW,241,0.0,0.0,75,0.00,,,0.00,WUHU216DAVISVP2,2013-07-28 05:07:00,
2013-07-27 22:12:00,61.7,53.8,30.00,WSW,241,0.0,0.0,75,0.00,,,0.00,WUHU216DAVISVP2,2013-07-28 05:12:00,
2013-07-27 22:17:00,61.5,53.6,30.00,WSW,241,0.0,0.0,75,0.00,,,0.00,WUHU216DAVISVP2,2013-07-28 05:17:00,
2013-07-27 22:22:00,61.3,53.8,30.00,WSW,241,0.0,0.0,76,0.00,,,0.00,WUHU216DAVISVP2,2013-07-28 05:22:00,
2013-07-27 22:27:00,61.1,53.5,30.00,WSW,241,0.0,0.0,76,0.00,,,0.00,WUHU216DAVISVP2,2013-07-28 05:27:00,
2013-07-27 22:32:00,60.9,53.7,30.00,WSW,241,0.0,0.0,77,0.00,,,0.00,WUHU216DAVISVP2,2013-07-28 05:32:00,
2013-07-27 22:37:00,60.7,53.5,30.00,WSW,241,0.0,0.0,77,0.00,,,0.00,WUHU216DAVISVP2,2013-07-28 05:37:00,
2013-07-27 22:42:00,60.4,53.2,30.00,WSW,241,0.0,0.0,77,0.00,,,0.00,WUHU216DAVISVP2,2013-07-28 05:42:00,
2013-07-27 22:47:00,60.2,53.4,30.00,WSW,241,0.0,0.0,78,0.00,,,0.00,WUHU216DAVISVP2,2013-07-28 05:47:00,
2013-07-27 22:52:00,59.9,53.4,30.00,WSW,241,0.0,0.0,79,0.00,,,0.00,WUHU216DAVISVP2,2013-07-28 05:52:00,
2013-07-27 22:57:00,59.6,53.1,30.00,WSW,241,0.0,0.0,79,0.00,,,0.00,WUHU216DAVISVP2,2013-07-28 05:57:00,
2013-07-27 23:02:00,59.4,53.3,30.00,WSW,241,0.0,0.0,80,0.00,,,0.00,WUHU216DAVISVP2,2013-07-28 06:02:00,
2013-07-27 23:07:00,59.2,53.4,30.00,WSW,241,0.0,0.0,81,0.00,,,0.00,WUHU216DAVISVP2,2013-07-28 06:07:00,
2013-07-27 23:12:00,58.9,53.1,29.99,WSW,241,0.0,0.0,81,0.00,,,0.00,WUHU216DAVISVP2,2013-07-28 06:12:00,
2013-07-27 23:17:00,58.7,53.3,29.99,WSW,241,0.0,0.0,82,0.00,,,0.00,WUHU216DAVISVP2,2013-07-28 06:17:00,
2013-07-27 23:22:00,58.5,53.1,29.99,WSW,241,0.0,0.0,82,0.00,,,0.00,WUHU216DAVISVP2,2013-07-28 06:22:00,
2013-07-27 23:27:00,58.2,53.1,29.99,WSW,241,0.0,0.0,83,0.00,,,0.00,WUHU216DAVISVP2,2013-07-28 06:27:00,
2013-07-27 23:32:00,57.8,52.7,29.99,WSW,241,0.0,0.0,83,0.00,,,0.00,WUHU216DAVISVP2,2013-07-28 06:32:00,
2013-07-27 23:37:00,57.5,52.7,29.99,WSW,241,0.0,0.0,84,0.00,,,0.00,WUHU216DAVISVP2,2013-07-28 06:37:00,
2013-07-27 23:42:00,57.1,52.3,29.99,WSW,241,0.0,0.0,84,0.00,,,0.00,WUHU216DAVISVP2,2013-07-28 06:42:00,
2013-07-27 23:47:00,56.8,52.3,29.98,WSW,241,0.0,0.0,85,0.00,,,0.00,WUHU216DAVISVP2,2013-07-28 06:47:00,
2013-07-27 23:52:00,56.5,52.0,29.98,WSW,241,0.0,0.0,85,0.00,,,0.00,WUHU216DAVISVP2,2013-07-28 06:52:00,
2013-07-27 23:57:00,56.2,52.1,29.99,WSW,241,0.0,0.0,86,0.00,,,0.00,WUHU216DAVISVP2,2013-07-28 06:57:00,